[[{"header":{"parameterUnit":"m.s-1","parameterCategory":1,"la1":30.2991,"la2":30.254,"lo1":-89.0895,"lo2":-89.0444,"dy":0.0017,"dx":0.0017,"nx":28,"ny":28,"refTime":"2023-11-09T09:00:00:Z","depth":0,"parameterNumber":2,"parameterNumberName":"U-component_of_WINDS"},"data":[0,0,0,0,0,0,0,0,0,0,0,0,0,0,0,0,0,0,0,0,0,0,0,0,0,0,0,0,0,0,0,0,0,0,0,0,0,0,0,0,0,0,0,0,0,0,0,0,0,0,0,0,0,0,0,0,0,0,-1.3584,-1.3583,0,-1.3521,-1.352,-1.352,-1.3501,-1.3501,-1.3502,-1.3502,-1.3435,-1.3433,-1.3431,0,0,0,0,0,0,0,0,0,0,0,0,0,-1.3682,-1.368,-1.3584,-1.3583,-1.3582,-1.3521,-1.352,-1.352,-1.3501,-1.3501,-1.3502,-1.3502,-1.3435,-1.3433,-1.343,0,0,0,0,0,0,0,0,0,0,0,0,0,-1.3631,-1.368,-1.3584,-1.3566,-1.3563,-1.3521,-1.352,-1.3519,-1.3501,-1.3501,-1.3502,-1.3502,-1.3436,-1.3433,-1.343,-1.3401,0,0,-1.342,-1.3419,0,0,0,0,0,0,0,0,-1.3634,-1.3628,-1.3569,-1.3567,-1.3564,-1.3519,-1.353,-1.3479,-1.3501,-1.3524,-1.3502,-1.3502,-1.3462,-1.3457,-1.3444,-1.3398,-1.3395,-1.342,-1.3418,-1.3417,-1.3416,0,0,0,0,0,0,0,-1.3638,-1.363,-1.3559,-1.3568,-1.3565,-1.3559,-1.3552,-1.3521,-1.3491,-1.3522,-1.3521,-1.3514,-1.3461,-1.3447,-1.3442,-1.3394,-1.342,-1.3418,-1.3416,-1.3414,-1.3316,-1.3316,0,0,0,0,0,0,-1.3645,-1.3633,-1.3561,-1.3557,-1.3601,-1.3557,-1.3549,-1.3533,-1.3492,-1.3486,-1.3514,-1.3513,-1.3452,-1.3446,-1.344,-1.3401,-1.3417,-1.3414,-1.3412,-1.3317,-1.3316,-1.3316,0,0,0,0,0,0,-1.3647,-1.3639,-1.3563,-1.3595,-1.3585,-1.3555,-1.3537,-1.3532,-1.3518,-1.3485,-1.3479,-1.3505,-1.3452,-1.3444,-1.341,-1.3398,-1.3413,-1.341,-1.3318,-1.3317,-1.3316,-1.3324,0,0,0,0,0,0,-1.365,-1.364,-1.363,-1.3595,-1.3583,-1.3536,-1.3536,-1.353,-1.3513,-1.3512,-1.3476,-1.347,-1.3452,-1.3415,-1.3407,-1.3394,-1.3407,-1.3319,-1.3318,-1.3316,-1.3325,-1.3323,-1.3322,0,0,0,0,0,-1.3654,-1.3635,-1.3629,-1.3621,-1.357,-1.3536,-1.3529,-1.351,-1.3512,-1.3501,-1.3479,-1.3471,-1.3401,-1.3412,-1.3403,-1.3389,-1.332,-1.3318,-1.3316,-1.3325,-1.3324,-1.3322,0,0,0,0,0,0,-1.3669,-1.363,-1.3624,-1.3593,-1.3568,-1.3533,-1.3518,-1.3509,-1.3482,-1.3483,-1.3459,-1.3451,-1.3417,-1.34,-1.3412,-1.3356,-1.336,-1.3356,-1.3369,-1.3368,-1.3366,-1.3371,-1.3405,0,0,0,0,0,-1.3669,-1.3645,-1.3612,-1.3588,-1.3576,-1.3549,-1.3533,-1.352,-1.3493,-1.3482,-1.3458,-1.3431,-1.3402,-1.3384,-1.3356,-1.3322,-1.3312,-1.3307,-1.3306,-1.3305,-1.3302,-1.328,-1.3276,-1.331,-1.331,-1.331,0,0,-1.3668,-1.3644,-1.3631,-1.359,-1.3569,-1.3544,-1.354,-1.3514,-1.3494,-1.3478,-1.3444,-1.3425,-1.3392,-1.3357,-1.3341,-1.3341,-1.3291,-1.3303,-1.3303,-1.33,-1.3278,-1.3274,-1.3272,-1.3309,-1.3309,-1.331,0,0,-1.3654,-1.3634,-1.3611,-1.3589,-1.3557,-1.3539,-1.3533,-1.3499,-1.3486,-1.3451,-1.3438,-1.3413,-1.3365,-1.3341,-1.3323,-1.3296,-1.3287,-1.3288,-1.3281,-1.326,-1.3257,-1.3254,-1.3243,-1.3239,-1.3285,-1.3285,-1.3285,0,-1.3657,-1.3619,-1.36,-1.3573,-1.3555,-1.3539,-1.3513,-1.3493,-1.3453,-1.344,-1.3442,-1.3379,-1.3356,-1.3314,-1.3307,-1.3294,-1.3284,-1.3292,-1.3259,-1.3256,-1.3254,-1.3242,-1.3238,-1.3285,-1.3285,-1.3285,-1.3285,0,-1.3623,-1.3597,-1.3582,-1.3544,-1.3523,-1.3498,-1.3472,-1.3453,-1.3441,-1.3422,-1.3385,-1.3357,-1.3322,-1.3311,-1.3299,-1.3266,-1.3267,-1.3264,-1.3267,-1.3251,-1.324,-1.3235,-1.3286,-1.3285,-1.3285,-1.3285,0,0,-1.3619,-1.3568,-1.3563,-1.3544,-1.3506,-1.3485,-1.3457,-1.3423,-1.3406,-1.3378,-1.3353,-1.3311,-1.3307,-1.3286,-1.3271,-1.3252,-1.323,-1.3251,-1.325,-1.3247,-1.3188,-1.319,-1.3185,-1.3223,-1.3222,-1.3222,-1.319,0,-1.3599,-1.355,-1.353,-1.3489,-1.3463,-1.3445,-1.342,-1.3393,-1.3374,-1.3347,-1.3325,-1.3295,-1.3294,-1.3281,-1.3261,-1.3237,-1.3217,-1.3239,-1.3197,-1.3196,-1.3205,-1.3179,-1.3182,-1.3154,-1.3186,-1.3185,-1.3184,0,-1.357,-1.3541,-1.3498,-1.346,-1.3449,-1.3427,-1.3392,-1.3368,-1.3335,-1.3322,-1.3297,-1.3283,-1.325,-1.3255,-1.3208,-1.3223,-1.3204,-1.3189,-1.3188,-1.3183,-1.3189,-1.3172,-1.3144,-1.314,-1.3178,-1.3178,-1.3179,0,-1.3569,-1.352,-1.3487,-1.3471,-1.3427,-1.3412,-1.3392,-1.336,-1.334,-1.3309,-1.3295,-1.326,-1.3241,-1.3214,-1.3189,-1.3195,-1.3143,-1.3147,-1.313,-1.313,-1.312,-1.312,-1.3087,-1.3109,-1.3109,-1.3109,-1.311,0,-1.3548,-1.3522,-1.3485,-1.3465,-1.3434,-1.3409,-1.3379,-1.3358,-1.3329,-1.3302,-1.3285,-1.326,-1.323,-1.32,-1.318,-1.3143,-1.3135,-1.3122,-1.3117,-1.3123,-1.3124,-1.311,-1.3111,-1.3108,-1.3109,-1.3109,-1.3109,0,-1.3542,-1.3517,-1.348,-1.344,-1.3429,-1.3408,-1.3373,-1.3351,-1.333,-1.3296,-1.3287,-1.3253,-1.3217,-1.3189,-1.3143,-1.3129,-1.3089,-1.3084,-1.31,-1.3098,-1.3081,-1.3083,-1.3037,-1.3028,-1.3058,-1.3057,-1.3057,0,-1.3531,-1.351,-1.3468,-1.3449,-1.3429,-1.34,-1.3378,-1.3352,-1.333,-1.3289,-1.3272,-1.3235,-1.3203,-1.3146,-1.3116,-1.3079,-1.3073,-1.3059,-1.3067,-1.3073,-1.307,-1.3072,-1.3068,-1.3058,-1.3058,-1.3058,-1.3058,0,-1.3512,-1.35,-1.3471,-1.3436,-1.341,-1.3382,-1.3352,-1.3337,-1.3305,-1.3281,-1.3244,-1.322,-1.3171,-1.3133,-1.3093,-1.3071,-1.3058,-1.3055,-1.3049,-1.3055,-1.3064,-1.3057,-1.3096,-1.3056,-1.3057,-1.3057,-1.3057,-1.3057,-1.3503,-1.3482,-1.3448,-1.3415,-1.3389,-1.3361,-1.3338,-1.3313,-1.3282,-1.3241,-1.3227,-1.3188,-1.3152,-1.3096,-1.3073,-1.3041,-1.304,-1.3032,-1.303,-1.3028,-1.3027,-1.307,-1.3033,-1.3033,-1.3033,-1.3033,-1.3033,0,-1.3482,-1.3458,-1.3428,-1.3387,-1.3359,-1.335,-1.3316,-1.3293,-1.3259,-1.3227,-1.3196,-1.3152,-1.3114,-1.308,-1.304,-1.3021,-1.3014,-1.3011,-1.3012,-1.3006,-1.3031,-1.3039,-1.3017,-1.3017,-1.3017,-1.3017,-1.3017,-1.3017,-1.3468,-1.3432,-1.3415,-1.3365,-1.3341,-1.3303,-1.3284,-1.3257,-1.3231,-1.3182,-1.3151,-1.3129,-1.3095,-1.3052,-1.3016,-1.3006,-1.2992,-1.299,-1.2979,-1.3003,-1.3005,-1.3007,-1.3015,-1.2988,-1.2988,-1.2957,-1.2957,-1.2957]},{"header":{"parameterUnit":"m.s-1","parameterCategory":1,"la1":30.2991,"la2":30.254,"lo1":-89.0895,"lo2":-89.0444,"dy":0.0017,"dx":0.0017,"nx":28,"ny":28,"refTime":"2023-11-09T09:00:00:Z","depth":0,"parameterNumber":3,"parameterNumberName":"V-component_of_WINDS"},"data":[0,0,0,0,0,0,0,0,0,0,0,0,0,0,0,0,0,0,0,0,0,0,0,0,0,0,0,0,0,0,0,0,0,0,0,0,0,0,0,0,0,0,0,0,0,0,0,0,0,0,0,0,0,0,0,0,0,0,1.5018,1.502,0,1.5196,1.5198,1.52,1.5267,1.5266,1.5266,1.5265,1.545,1.5456,1.5461,0,0,0,0,0,0,0,0,0,0,0,0,0,1.474,1.4744,1.5018,1.502,1.5022,1.5196,1.5198,1.52,1.5267,1.5266,1.5265,1.5265,1.5449,1.5455,1.5462,0,0,0,0,0,0,0,0,0,0,0,0,0,1.4883,1.4746,1.5017,1.5076,1.5083,1.5195,1.5198,1.5201,1.5267,1.5266,1.5265,1.5265,1.5446,1.5454,1.5463,1.553,0,0,1.5488,1.5491,0,0,0,0,0,0,0,0,1.4875,1.4893,1.5065,1.5072,1.508,1.5208,1.5168,1.5312,1.5267,1.5197,1.5265,1.5264,1.5371,1.5385,1.542,1.5539,1.5547,1.5488,1.5493,1.5497,1.5499,0,0,0,0,0,0,0,1.4865,1.4886,1.5088,1.5068,1.5077,1.5095,1.5115,1.5196,1.5287,1.5203,1.5209,1.5229,1.5375,1.5412,1.5425,1.5549,1.5488,1.5495,1.55,1.5504,1.5735,1.5736,0,0,0,0,0,0,1.4845,1.4877,1.5083,1.5094,1.4973,1.5101,1.5123,1.5168,1.5286,1.5303,1.5229,1.5231,1.5399,1.5416,1.5432,1.5521,1.5497,1.5504,1.5509,1.5734,1.5735,1.5737,0,0,0,0,0,0,1.4839,1.4862,1.5075,1.4987,1.5016,1.5106,1.5157,1.5172,1.521,1.5305,1.5322,1.5251,1.5399,1.5421,1.5506,1.5528,1.5508,1.5515,1.5732,1.5734,1.5736,1.5696,0,0,0,0,0,0,1.483,1.486,1.4885,1.4987,1.502,1.5144,1.5158,1.5176,1.5223,1.5227,1.533,1.5346,1.54,1.5493,1.5514,1.5539,1.5522,1.5731,1.5733,1.5736,1.5696,1.5697,1.5697,0,0,0,0,0,1.482,1.4867,1.4886,1.491,1.5053,1.5145,1.5164,1.5224,1.5225,1.5252,1.5314,1.5343,1.5522,1.5501,1.5525,1.5553,1.573,1.5733,1.5735,1.5696,1.5697,1.5697,0,0,0,0,0,0,1.4765,1.4881,1.4903,1.4984,1.5054,1.5156,1.5192,1.5223,1.5295,1.5296,1.5368,1.5391,1.547,1.552,1.5495,1.5626,1.5628,1.5636,1.559,1.5591,1.5592,1.5578,1.5529,0,0,0,0,0,1.4762,1.4826,1.4925,1.4986,1.5021,1.51,1.5143,1.5183,1.5259,1.5289,1.5357,1.5431,1.5504,1.5551,1.5623,1.5704,1.5729,1.5735,1.5736,1.5736,1.5741,1.579,1.5795,1.5746,1.5746,1.5746,0,0,1.4757,1.4828,1.4864,1.4977,1.5036,1.5103,1.5125,1.5193,1.5244,1.53,1.5384,1.5437,1.5524,1.5608,1.5649,1.5652,1.5761,1.5739,1.5738,1.5745,1.5794,1.5798,1.5802,1.5748,1.5748,1.5747,0,0,1.4782,1.4841,1.49,1.496,1.5049,1.5102,1.5116,1.5214,1.5251,1.5337,1.5382,1.5444,1.5567,1.5628,1.5676,1.5726,1.5757,1.5748,1.5751,1.5797,1.5801,1.5805,1.5825,1.583,1.5754,1.5754,1.5754,0,1.4764,1.4864,1.4927,1.4994,1.5043,1.5097,1.5159,1.5214,1.5322,1.5356,1.5358,1.5517,1.5579,1.5679,1.5691,1.5728,1.5748,1.5736,1.5795,1.58,1.5804,1.5824,1.5831,1.5752,1.5752,1.5752,1.5753,0,1.484,1.4909,1.4946,1.5049,1.5103,1.5167,1.5241,1.5288,1.5324,1.5378,1.5466,1.5543,1.5633,1.566,1.5696,1.5766,1.5766,1.5781,1.5785,1.5806,1.5826,1.5834,1.575,1.575,1.5751,1.5751,0,0,1.4833,1.4971,1.4984,1.5033,1.5136,1.5192,1.5259,1.5347,1.5387,1.5461,1.552,1.5625,1.5641,1.5694,1.5738,1.5779,1.5816,1.579,1.5793,1.5793,1.59,1.5888,1.5896,1.5837,1.5839,1.584,1.5893,0,1.4872,1.4993,1.5053,1.5149,1.5215,1.5269,1.5328,1.5399,1.5451,1.5516,1.5575,1.5649,1.5663,1.5696,1.5739,1.5802,1.5839,1.58,1.5895,1.5897,1.5871,1.5906,1.5893,1.5939,1.5901,1.5902,1.5903,0,1.4933,1.5006,1.5109,1.5207,1.5237,1.5288,1.5375,1.5436,1.5519,1.5554,1.5615,1.5658,1.5734,1.5732,1.5838,1.581,1.5853,1.5891,1.5894,1.5905,1.5901,1.5919,1.5955,1.5962,1.5916,1.5915,1.5914,0,1.4919,1.5043,1.5122,1.5161,1.5277,1.5313,1.5363,1.5445,1.5495,1.5571,1.5604,1.5688,1.5735,1.58,1.5865,1.5858,1.5965,1.5969,1.5998,1.5997,1.6018,1.6016,1.6063,1.6045,1.6045,1.6045,1.6045,0,1.4956,1.5017,1.5117,1.5165,1.5236,1.5305,1.5374,1.5428,1.5501,1.5562,1.5614,1.5671,1.5754,1.5822,1.5874,1.5954,1.5975,1.6007,1.602,1.6002,1.5998,1.6031,1.603,1.6047,1.6046,1.6046,1.6046,0,1.4952,1.5021,1.511,1.5213,1.5241,1.5288,1.5378,1.5427,1.5483,1.556,1.5582,1.567,1.5753,1.5825,1.5934,1.5969,1.6052,1.6068,1.6024,1.6031,1.6057,1.6054,1.6127,1.614,1.6112,1.6112,1.6113,0,1.4971,1.5019,1.5128,1.5172,1.5221,1.5292,1.5343,1.5414,1.5466,1.5565,1.5604,1.569,1.5762,1.5892,1.5967,1.6051,1.607,1.609,1.6083,1.6064,1.6072,1.6068,1.6074,1.609,1.609,1.609,1.609,0,1.4998,1.5031,1.5102,1.5186,1.5245,1.5315,1.5386,1.542,1.5505,1.5561,1.5645,1.5702,1.5814,1.5899,1.5992,1.6046,1.6083,1.6091,1.6103,1.6085,1.6058,1.6074,1.6025,1.6089,1.6089,1.6089,1.6089,1.6089,1.5008,1.5054,1.5138,1.5216,1.5277,1.5343,1.5396,1.5458,1.553,1.5626,1.5664,1.5751,1.5836,1.5964,1.6018,1.6089,1.6095,1.6111,1.6115,1.6118,1.6116,1.6047,1.6106,1.6106,1.6106,1.6106,1.6106,0,1.5039,1.5096,1.5167,1.5265,1.5328,1.5356,1.5437,1.5488,1.5563,1.5638,1.5709,1.5808,1.5892,1.5974,1.6062,1.6103,1.6122,1.6124,1.6122,1.6134,1.6105,1.6086,1.6107,1.6107,1.6107,1.6107,1.6107,1.6107,1.5062,1.5142,1.5185,1.5297,1.5355,1.5439,1.5483,1.5545,1.5606,1.5714,1.5783,1.5836,1.5915,1.601,1.6089,1.6112,1.6142,1.614,1.6166,1.6137,1.6136,1.6135,1.6118,1.6146,1.6146,1.619,1.6191,1.6191]}]]